SCP
0 0 0 0 0 0 0 0 0 0 0 0 3 3 3 3 3 2 2 1 1 2
0 0 0 0 0 0 0 0 0 0 0 0 0 3 3 4 3 3 3 2 3 3
0 0 0 0 0 0 0 0 0 0 0 0 0 0 1 5 4 3 4 4 3 4
0 0 0 0 0 0 0 0 0 0 0 0 0 0 0 0 2 4 3 4 5 3
0 0 0 0 0 0 0 0 0 0 0 0 0 0 0 0 2 3 3 3 4 3
0 0 0 0 0 0 0 0 0 0 0 0 0 0 0 0 0 1 2 3 3 3
0 0 0 0 0 0 0 0 0 0 0 0 0 0 0 0 0 1 1 2 2 2
0 0 0 0 0 0 0 0 0 0 0 0 0 0 0 0 0 0 1 1 2 2
0 0 0 0 0 0 0 0 0 0 0 0 0 0 0 0 0 0 0 1 2 2
0 0 0 0 0 0 0 0 0 0 0 0 0 0 0 0 -0 -0 0 1 2 2
0 0 0 0 0 0 0 0 0 0 0 0 0 -0 -0 0 -0 -0 0 1 2 1
0 0 0 0 0 0 0 0 0 0 0 0 0 -0 -0 0 -0 -0 0 1 1 0
0 0 0 0 0 0 0 0 0 0 0 0 0 -0 -0 0 -0 -0 0 1 1 0
0 0 0 0 0 0 0 0 0 0 0 0 -0 -0 0 0 0 -0 1 1 0 0
Wind_Speed_500mb
40 38 33 36 34 37 38 36 35 50 55 60 53 46 59 68 68 55 60 72 83 95
40 36 41 37 35 35 41 43 47 50 51 61 61 52 51 62 68 65 64 70 74 84
41 37 36 30 35 43 48 46 50 49 54 57 60 65 61 62 71 72 73 70 79 88
41 42 45 50 54 55 53 49 54 52 56 59 58 59 66 63 71 75 77 69 78 87
52 49 50 46 51 52 49 53 57 62 63 64 62 61 64 68 72 73 83 73 77 84
45 50 54 55 58 56 58 57 54 62 71 73 72 67 63 62 70 80 78 77 80 81
57 56 58 57 57 61 64 69 74 75 77 76 71 71 68 67 69 75 82 78 79 73
34 40 46 53 58 65 71 77 82 75 75 73 73 76 74 72 66 72 79 82 79 73
58 51 53 60 65 71 76 74 77 85 86 83 77 72 76 79 67 69 75 84 77 72
61 68 71 69 72 79 83 87 84 81 89 89 86 84 87 82 77 68 75 83 79 73
78 82 89 94 98 95 85 85 91 97 104 98 99 93 86 78 83 73 72 83 82 71
83 88 91 96 98 99 97 108 114 98 99 103 104 99 86 76 79 78 72 81 79 72
84 91 96 88 83 85 91 99 96 93 92 100 102 99 93 81 79 81 73 76 76 73
92 85 80 81 83 83 88 87 86 94 99 99 93 95 90 83 83 85 73 79 73 67
Wind_Direction_500mb
281 280 281 269 265 261 264 265 256 251 244 245 253 253 261 264 265 268 268 266 258 252
270 274 284 285 278 272 271 271 269 268 258 255 248 248 251 261 264 269 273 268 263 256
252 270 273 273 279 283 282 279 275 270 267 264 257 254 249 251 260 267 267 265 259 256
245 255 259 267 276 281 278 281 282 279 276 272 267 259 256 249 255 261 264 263 259 259
257 260 260 265 279 287 283 278 279 279 279 276 274 269 264 254 252 259 259 263 259 255
250 251 257 261 269 279 290 281 276 277 279 282 280 274 265 267 259 258 260 259 257 250
267 261 260 260 265 274 285 286 291 277 278 281 280 275 264 261 270 258 257 255 252 244
267 265 267 270 274 278 280 283 288 290 280 281 275 271 264 255 270 261 259 251 247 242
279 275 278 279 278 277 278 274 278 283 284 270 269 269 266 250 261 260 262 247 243 236
275 276 277 275 275 273 273 274 273 273 285 273 268 270 268 251 253 256 260 244 239 231
271 270 271 271 269 266 267 266 267 268 273 275 265 266 268 259 251 252 255 240 236 226
272 273 274 274 272 269 267 264 266 266 268 270 263 264 264 260 252 247 253 238 228 219
278 281 280 271 264 263 261 265 267 265 254 257 260 263 262 257 251 253 251 226 221 214
285 279 272 268 267 269 261 262 258 255 254 257 266 264 257 252 244 243 247 219 208 206
Wind_Speed_850mb
40 38 33 36 34 37 38 36 35 50 55 60 53 46 59 68 68 55 60 72 83 95
40 36 41 37 35 35 41 43 47 50 51 61 61 52 51 62 68 65 64 70 74 84
41 37 36 30 35 43 48 46 50 49 54 57 60 65 61 62 71 72 73 70 79 88
41 42 45 50 54 55 53 49 54 52 56 59 58 59 66 63 71 75 77 69 78 87
52 49 50 46 51 52 49 53 57 62 63 64 62 61 64 68 72 73 83 73 77 84
45 50 54 55 58 56 58 57 54 62 71 73 72 67 63 62 70 80 78 77 80 81
57 56 58 57 57 61 64 69 74 75 77 76 71 71 68 67 69 75 82 78 79 73
34 40 46 53 58 65 71 77 82 75 75 73 73 76 74 72 66 72 79 82 79 73
58 51 53 60 65 71 76 74 77 85 86 83 77 72 76 79 67 69 75 84 77 72
61 68 71 69 72 79 83 87 84 81 89 89 86 84 87 82 77 68 75 83 79 73
78 82 89 94 98 95 85 85 91 97 104 98 99 93 86 78 83 73 72 83 82 71
83 88 91 96 98 99 97 108 114 98 99 103 104 99 86 76 79 78 72 81 79 72
84 91 96 88 83 85 91 99 96 93 92 100 102 99 93 81 79 81 73 76 76 73
92 85 80 81 83 83 88 87 86 94 99 99 93 95 90 83 83 85 73 79 73 67
Wind_Direction_850mb
281 280 281 269 265 261 264 265 256 251 244 245 253 253 261 264 265 268 268 266 258 252
270 274 284 285 278 272 271 271 269 268 258 255 248 248 251 261 264 269 273 268 263 256
252 270 273 273 279 283 282 279 275 270 267 264 257 254 249 251 260 267 267 265 259 256
245 255 259 267 276 281 278 281 282 279 276 272 267 259 256 249 255 261 264 263 259 259
257 260 260 265 279 287 283 278 279 279 279 276 274 269 264 254 252 259 259 263 259 255
250 251 257 261 269 279 290 281 276 277 279 282 280 274 265 267 259 258 260 259 257 250
267 261 260 260 265 274 285 286 291 277 278 281 280 275 264 261 270 258 257 255 252 244
267 265 267 270 274 278 280 283 288 290 280 281 275 271 264 255 270 261 259 251 247 242
279 275 278 279 278 277 278 274 278 283 284 270 269 269 266 250 261 260 262 247 243 236
275 276 277 275 275 273 273 274 273 273 285 273 268 270 268 251 253 256 260 244 239 231
271 270 271 271 269 266 267 266 267 268 273 275 265 266 268 259 251 252 255 240 236 226
272 273 274 274 272 269 267 264 266 266 268 270 263 264 264 260 252 247 253 238 228 219
278 281 280 271 264 263 261 265 267 265 254 257 260 263 262 257 251 253 251 226 221 214
285 279 272 268 267 269 261 262 258 255 254 257 266 264 257 252 244 243 247 219 208 206